• In Deutschland
  • Länderverzeichnis
  • Für 7 Tage
  • Wassertemperatur
  • Satellitenkarten
  • Wetterkarte
  • Widgets
  • user-avatar
    Anmelden

    Stündliche Wetter Makoua

    Heute, 17 Januar, Mittwoch

    Zeit Temperatur Niederschläge Wind Luftdruck Luftfeuchtigkeit
    00:00 +27°C° 0 mm 1 m/S 725 mmHg 51%
    01:00 +24°C° 0 mm 0 m/S 725 mmHg 54%
    02:00 +23°C° 0 mm 0 m/S 725 mmHg 57%
    03:00 +23°C° 0 mm 0 m/S 725 mmHg 60%
    04:00 +23°C° 0 mm 0 m/S 725 mmHg 62%
    05:00 +25°C° 0 mm 1 m/S 725 mmHg 63%
    06:00 +25°C° 0 mm 1 m/S 726 mmHg 65%
    07:00 +25°C° 0 mm 1 m/S 726 mmHg 66%
    08:00 +28°C° 0 mm 1 m/S 726 mmHg 58%
    09:00 +31°C° 0 mm 1 m/S 727 mmHg 50%
    10:00 +35°C° 0 mm 2 m/S 727 mmHg 41%
    11:00 +37°C° 0 mm 2 m/S 726 mmHg 35%
    12:00 +39°C° 0 mm 1 m/S 725 mmHg 29%
    13:00 +40°C° 0 mm 1 m/S 725 mmHg 23%
    14:00 +39°C° 0 mm 1 m/S 724 mmHg 24%
    15:00 +39°C° 0 mm 1 m/S 723 mmHg 26%
    16:00 +37°C° 0 mm 1 m/S 722 mmHg 27%
    17:00 +35°C° 0 mm 1 m/S 723 mmHg 32%
    18:00 +32°C° 0 mm 1 m/S 723 mmHg 37%
    19:00 +30°C° 0 mm 1 m/S 723 mmHg 43%
    20:00 +29°C° 0 mm 1 m/S 724 mmHg 48%
    21:00 +29°C° 0 mm 1 m/S 724 mmHg 54%
    22:00 +28°C° 0 mm 1 m/S 725 mmHg 59%
    23:00 +27°C° 0 mm 1 m/S 725 mmHg 62%

    Morgen, 18 Januar, Donnerstag

    Zeit Temperatur Niederschläge Wind Luftdruck Luftfeuchtigkeit
    00:00 +27°C° 0 mm 1 m/S 725 mmHg 65%
    01:00 +27°C° 0 mm 2 m/S 725 mmHg 68%
    02:00 +27°C° 0 mm 2 m/S 725 mmHg 69%
    03:00 +26°C° 0 mm 2 m/S 724 mmHg 71%
    04:00 +26°C° 0 mm 2 m/S 724 mmHg 72%
    05:00 +26°C° 0 mm 2 m/S 725 mmHg 72%
    06:00 +26°C° 0 mm 2 m/S 725 mmHg 73%
    07:00 +26°C° 0 mm 2 m/S 726 mmHg 73%
    08:00 +28°C° 0 mm 2 m/S 726 mmHg 65%
    09:00 +30°C° 0 mm 2 m/S 727 mmHg 58%
    10:00 +34°C° 0 mm 2 m/S 727 mmHg 50%
    11:00 +35°C° 0 mm 2 m/S 726 mmHg 44%
    12:00 +37°C° 0 mm 2 m/S 726 mmHg 38%
    13:00 +39°C° 0 mm 2 m/S 725 mmHg 32%
    14:00 +38°C° 0 mm 2 m/S 724 mmHg 32%
    15:00 +36°C° 0 mm 1 m/S 724 mmHg 33%
    16:00 +36°C° 0 mm 1 m/S 723 mmHg 33%
    17:00 +34°C° 0 mm 1 m/S 723 mmHg 38%
    18:00 +32°C° 0 mm 1 m/S 724 mmHg 42%
    19:00 +31°C° 0 mm 1 m/S 724 mmHg 46%
    20:00 +30°C° 0,1 mm 1 m/S 724 mmHg 50%
    21:00 +29°C° 0,1 mm 1 m/S 725 mmHg 54%
    22:00 +29°C° 0,1 mm 1 m/S 725 mmHg 58%
    23:00 +28°C° 0 mm 2 m/S 725 mmHg 61%

    übermorgen, 19 Januar, Freitag

    Zeit Temperatur Niederschläge Wind Luftdruck Luftfeuchtigkeit
    00:00 +28°C° 0 mm 2 m/S 725 mmHg 65%
    01:00 +27°C° 0 mm 2 m/S 725 mmHg 68%
    02:00 +26°C° 0 mm 2 m/S 725 mmHg 71%
    03:00 +26°C° 0 mm 2 m/S 725 mmHg 74%
    04:00 +25°C° 0 mm 2 m/S 724 mmHg 77%
    05:00 +26°C° 0 mm 2 m/S 725 mmHg 77%
    06:00 +26°C° 0 mm 2 m/S 725 mmHg 78%
    07:00 +26°C° 0 mm 2 m/S 726 mmHg 78%
    08:00 +28°C° 0 mm 2 m/S 726 mmHg 68%
    09:00 +30°C° 0 mm 2 m/S 727 mmHg 58%
    10:00 +34°C° 0 mm 2 m/S 727 mmHg 48%
    11:00 +34°C° 0,2 mm 2 m/S 727 mmHg 46%
    12:00 +34°C° 0,2 mm 1 m/S 726 mmHg 45%
    13:00 +34°C° 0,2 mm 1 m/S 725 mmHg 43%
    14:00 +34°C° 0 mm 1 m/S 725 mmHg 42%
    15:00 +34°C° 0 mm 1 m/S 724 mmHg 40%
    16:00 +35°C° 0 mm 1 m/S 723 mmHg 39%
    17:00 +33°C° 0 mm 1 m/S 724 mmHg 44%
    18:00 +31°C° 0 mm 1 m/S 724 mmHg 49%
    19:00 +29°C° 0 mm 1 m/S 724 mmHg 53%
    20:00 +29°C° 0 mm 1 m/S 725 mmHg 56%
    21:00 +28°C° 0 mm 1 m/S 725 mmHg 58%
    22:00 +27°C° 0 mm 1 m/S 726 mmHg 61%
    23:00 +27°C° 0 mm 1 m/S 726 mmHg 63%

    20 Januar, Samstag

    Zeit Temperatur Niederschläge Wind Luftdruck Luftfeuchtigkeit
    00:00 +26°C° 0 mm 1 m/S 725 mmHg 65%
    01:00 +26°C° 0 mm 1 m/S 725 mmHg 67%
    02:00 +25°C° 0 mm 1 m/S 725 mmHg 70%
    03:00 +25°C° 0 mm 1 m/S 725 mmHg 72%
    04:00 +25°C° 0 mm 1 m/S 724 mmHg 75%
    05:00 +25°C° 0 mm 1 m/S 725 mmHg 75%
    06:00 +25°C° 0 mm 1 m/S 725 mmHg 75%
    07:00 +25°C° 0 mm 1 m/S 726 mmHg 76%
    08:00 +28°C° 0 mm 1 m/S 726 mmHg 66%
    09:00 +31°C° 0 mm 1 m/S 727 mmHg 56%
    10:00 +34°C° 0 mm 2 m/S 727 mmHg 46%
    11:00 +34°C° 0 mm 1 m/S 726 mmHg 42%
    12:00 +36°C° 0 mm 1 m/S 725 mmHg 39%
    13:00 +37°C° 0 mm 1 m/S 724 mmHg 35%
    14:00 +36°C° 0 mm 1 m/S 724 mmHg 35%
    15:00 +36°C° 0 mm 1 m/S 723 mmHg 35%
    16:00 +35°C° 0 mm 1 m/S 723 mmHg 35%
    17:00 +34°C° 0 mm 1 m/S 723 mmHg 40%
    18:00 +32°C° 0 mm 1 m/S 723 mmHg 45%
    19:00 +30°C° 0 mm 1 m/S 724 mmHg 50%
    20:00 +30°C° 0 mm 1 m/S 724 mmHg 53%
    21:00 +29°C° 0 mm 1 m/S 725 mmHg 56%
    22:00 +28°C° 0 mm 1 m/S 725 mmHg 58%
    23:00 +27°C° 0,1 mm 1 m/S 725 mmHg 63%

    21 Januar, Sonntag

    Zeit Temperatur Niederschläge Wind Luftdruck Luftfeuchtigkeit
    00:00 +27°C° 0,1 mm 1 m/S 725 mmHg 67%
    01:00 +26°C° 0,1 mm 1 m/S 724 mmHg 71%
    02:00 +25°C° 0 mm 1 m/S 724 mmHg 73%
    03:00 +25°C° 0 mm 1 m/S 724 mmHg 75%
    04:00 +25°C° 0 mm 1 m/S 724 mmHg 77%
    05:00 +25°C° 0 mm 1 m/S 725 mmHg 78%
    06:00 +25°C° 0 mm 1 m/S 725 mmHg 79%
    07:00 +25°C° 0 mm 1 m/S 726 mmHg 79%
    08:00 +28°C° 0 mm 1 m/S 726 mmHg 68%
    09:00 +31°C° 0 mm 1 m/S 727 mmHg 57%
    10:00 +35°C° 0 mm 2 m/S 727 mmHg 46%
    11:00 +35°C° 0 mm 1 m/S 726 mmHg 43%
    12:00 +36°C° 0 mm 1 m/S 725 mmHg 39%
    13:00 +35°C° 0 mm 0 m/S 724 mmHg 35%
    14:00 +36°C° 0 mm 1 m/S 724 mmHg 38%
    15:00 +35°C° 0 mm 1 m/S 724 mmHg 41%
    16:00 +34°C° 0 mm 1 m/S 723 mmHg 43%
    17:00 +33°C° 0 mm 1 m/S 723 mmHg 48%
    18:00 +31°C° 0 mm 1 m/S 723 mmHg 54%
    19:00 +29°C° 0 mm 1 m/S 724 mmHg 59%
    20:00 +28°C° 0,1 mm 1 m/S 724 mmHg 64%
    21:00 +27°C° 0,1 mm 1 m/S 724 mmHg 69%
    22:00 +26°C° 0,1 mm 1 m/S 725 mmHg 73%
    23:00 +26°C° 0,1 mm 1 m/S 724 mmHg 76%

    22 Januar, Montag

    Zeit Temperatur Niederschläge Wind Luftdruck Luftfeuchtigkeit
    00:00 +26°C° 0,1 mm 1 m/S 724 mmHg 79%
    01:00 +25°C° 0,1 mm 1 m/S 724 mmHg 82%
    02:00 +25°C° 0,3 mm 1 m/S 724 mmHg 84%
    03:00 +24°C° 0,3 mm 1 m/S 724 mmHg 87%
    04:00 +24°C° 0,3 mm 2 m/S 724 mmHg 89%
    05:00 +24°C° 0,2 mm 1 m/S 725 mmHg 89%
    06:00 +24°C° 0,2 mm 1 m/S 725 mmHg 90%
    07:00 +24°C° 0,2 mm 1 m/S 725 mmHg 90%
    08:00 +27°C° 0 mm 1 m/S 726 mmHg 77%
    09:00 +30°C° 0 mm 2 m/S 726 mmHg 64%
    10:00 +34°C° 0 mm 2 m/S 727 mmHg 51%
    11:00 +36°C° 0 mm 1 m/S 726 mmHg 43%
    12:00 +39°C° 0 mm 1 m/S 725 mmHg 35%
    13:00 +39°C° 0 mm 0 m/S 724 mmHg 27%
    14:00 +40°C° 0 mm 1 m/S 724 mmHg 32%
    15:00 +36°C° 0 mm 1 m/S 723 mmHg 37%
    16:00 +34°C° 0 mm 1 m/S 722 mmHg 42%
    17:00 +32°C° 0,6 mm 1 m/S 723 mmHg 51%
    18:00 +30°C° 0,6 mm 1 m/S 723 mmHg 59%
    19:00 +28°C° 0,6 mm 1 m/S 723 mmHg 68%
    20:00 +28°C° 1,2 mm 1 m/S 724 mmHg 73%
    21:00 +27°C° 1,2 mm 2 m/S 724 mmHg 79%
    22:00 +26°C° 1,2 mm 2 m/S 724 mmHg 84%
    23:00 +25°C° 1,5 mm 2 m/S 724 mmHg 85%
    Mehr zeigen